Location: Unspecified
(0.0000°N, 0.0000°E)
Time: 22:58:23
(UTC+00:00)

Vanguard 3 - All Passes

Search period start: 12 December 2018 00:00
Search period end: 22 December 2018 00:00
Orbit: 508 x 3263 km, 33.4° (Epoch: 12 December)

Date Brightness Start Highest point End Pass type
(mag) Time Alt. Az. Time Alt. Az. Time Alt. Az.
12 Dec - 03:27:18 10° NNW 03:32:10 15° NNE 03:35:56 10° NE visible
12 Dec - 05:39:45 10° NW 05:45:58 63° NNE 05:50:00 10° ESE daylight
12 Dec - 14:37:15 10° S 14:44:23 20° SE 14:54:06 10° ESE daylight
12 Dec - 16:46:24 10° SW 16:59:12 64° SE 17:18:27 10° ENE daylight
12 Dec - 18:59:51 10° WSW 19:16:04 59° NW 19:35:37 10° NE visible
12 Dec - 21:20:15 10° WNW 21:35:22 27° NNW 21:49:24 10° NNE visible
12 Dec - 23:50:20 10° NNW 23:56:37 13° N 00:02:05 10° NNE visible
13 Dec - 02:11:56 10° NNW 02:16:16 13° N 02:19:52 10° NNE visible
13 Dec - 04:24:47 10° NW 04:31:49 31° NNE 04:36:21 10° E visible
13 Dec - 06:39:10 10° WNW 06:43:46 31° SW 06:47:14 10° SSE daylight
13 Dec - 15:33:17 10° SSW 15:43:28 40° SE 15:59:16 10° ENE daylight
13 Dec - 17:44:35 10° WSW 17:58:52 82° NW 18:19:06 10° NE visible
13 Dec - 20:01:03 10° W 20:17:08 38° NNW 20:34:22 10° NNE visible
13 Dec - 22:26:42 10° NW 22:37:57 17° NNW 22:47:49 10° NNE visible
14 Dec - 00:54:24 10° NNW 00:59:16 12° N 01:03:27 10° NNE night (unlit)
14 Dec - 03:09:31 10° NNW 03:16:50 21° NNE 03:21:52 10° ENE visible
14 Dec - 05:23:23 10° NW 05:30:25 89° NE 05:34:45 10° SE visible
14 Dec - 14:21:18 10° S 14:28:18 21° SE 14:38:10 10° E daylight
14 Dec - 16:30:30 10° SW 16:42:28 71° SE 17:01:29 10° ENE daylight
14 Dec - 18:44:05 10° WSW 18:59:17 53° NNW 19:18:34 10° NE visible
14 Dec - 21:04:51 10° WNW 21:19:09 24° NNW 21:32:55 10° NNE visible
14 Dec - 23:33:38 10° NNW 23:41:10 14° N 23:47:37 10° NNE visible
15 Dec - 01:53:33 10° NNW 02:00:55 17° NNE 02:06:25 10° NE visible
15 Dec - 04:07:47 10° NW 04:16:22 44° NNE 04:21:29 10° E visible
15 Dec - 06:23:34 10° W 06:28:05 24° SW 06:31:29 10° SSE daylight
15 Dec - 15:17:24 10° SSW 15:27:00 44° SE 15:42:35 10° ENE daylight
15 Dec - 17:28:47 10° WSW 17:42:07 73° NW 18:01:56 10° NE daylight
15 Dec - 19:45:33 10° W 20:00:38 34° NNW 20:17:27 10° NNE visible
15 Dec - 22:11:11 10° NW 22:22:14 17° NNW 22:32:06 10° NNE visible
16 Dec - 00:36:14 10° NNW 00:43:54 15° N 00:50:03 10° NE night (unlit)
16 Dec - 02:51:59 10° NNW 03:01:24 29° NNE 03:07:23 10° E visible
16 Dec - 05:07:01 10° WNW 05:14:47 68° SW 05:19:24 10° SE visible
16 Dec - 14:05:24 10° S 14:12:11 23° SE 14:22:07 10° E daylight
16 Dec - 16:14:43 10° SW 16:25:51 80° SE 16:44:23 10° ENE daylight
16 Dec - 18:28:31 10° W 18:42:41 46° NNW 19:01:23 10° NE visible
16 Dec - 20:49:37 10° WNW 21:03:05 22° NNW 21:16:27 10° NNE visible
16 Dec - 23:16:46 10° NNW 23:25:42 15° N 23:33:15 10° NNE visible
17 Dec - 01:35:39 10° NNW 01:45:29 22° NNE 01:52:18 10° ENE visible
17 Dec - 03:50:49 10° NW 04:00:48 59° NNE 04:06:25 10° ESE visible
17 Dec - 06:08:02 10° W 06:12:22 19° SW 06:15:38 10° S daylight
17 Dec - 15:01:37 10° SSW 15:10:34 50° SE 15:25:48 10° ENE daylight
17 Dec - 17:13:09 10° WSW 17:25:31 64° NNW 17:44:38 10° NE daylight
17 Dec - 19:30:16 10° WNW 19:44:18 30° NNW 20:00:29 10° NNE visible
17 Dec - 21:55:34 10° NW 22:06:34 17° N 22:16:34 10° NNE visible
18 Dec - 00:18:24 10° NNW 00:28:26 18° N 00:36:06 10° NE night (unlit)
18 Dec - 02:34:31 10° NW 02:45:51 37° NNE 02:52:36 10° E visible
18 Dec - 04:50:39 10° WNW 04:59:02 53° SW 05:03:58 10° SE visible
18 Dec - 13:49:34 10° SSW 13:56:05 26° SE 14:05:59 10° E daylight
18 Dec - 15:59:03 10° SW 16:09:21 90° SE 16:27:10 10° NE daylight
18 Dec - 18:13:08 10° W 18:26:16 40° NNW 18:44:05 10° NE visible
18 Dec - 20:34:30 10° NW 20:47:08 21° NNW 21:00:00 10° NNE visible
18 Dec - 22:59:48 10° NNW 23:10:11 17° N 23:18:53 10° NE visible
19 Dec - 01:17:53 10° NNW 01:29:54 27° NNE 01:37:49 10° ENE visible
19 Dec - 03:33:50 10° NW 03:45:05 77° NE 03:51:13 10° ESE visible
19 Dec - 05:52:36 10° W 05:56:35 16° SW 05:59:41 10° S daylight
19 Dec - 14:45:56 10° SW 14:54:15 57° SE 15:08:56 10° ENE daylight
19 Dec - 16:57:42 10° WSW 17:09:07 55° NNW 17:27:14 10° NE daylight
19 Dec - 19:15:12 10° WNW 19:28:09 26° NNW 19:43:25 10° NNE visible
19 Dec - 21:39:47 10° NW 21:50:56 17° N 22:01:13 10° NNE visible
20 Dec - 00:00:43 10° NNW 00:12:50 22° NNE 00:21:49 10° ENE night (unlit)
20 Dec - 02:17:05 10° NW 02:30:10 48° NNE 02:37:37 10° E visible
20 Dec - 04:34:17 10° WNW 04:43:10 43° SW 04:48:27 10° SSE visible
20 Dec - 13:33:46 10° SSW 13:39:59 29° SE 13:49:45 10° E daylight
20 Dec - 15:43:32 10° WSW 15:53:01 79° NW 16:09:53 10° NE daylight
20 Dec - 17:57:57 10° W 18:10:02 35° NNW 18:26:41 10° NE visible
20 Dec - 20:19:28 10° NW 20:31:20 19° N 20:43:39 10° NNE visible
20 Dec - 22:42:45 10° NNW 22:54:35 19° N 23:04:27 10° NE visible
21 Dec - 01:00:13 10° NW 01:14:10 34° NNE 01:23:04 10° E visible
21 Dec - 03:16:51 10° NW 03:29:14 87° SW 03:35:53 10° SE visible
21 Dec - 05:37:18 10° WSW 05:40:47 14° SW 05:43:37 10° SSW daylight
21 Dec - 12:24:15 10° SSE 12:26:01 11° SE 12:28:00 10° ESE daylight
21 Dec - 14:30:19 10° SW 14:38:01 65° SE 14:52:00 10° ENE daylight
21 Dec - 16:42:24 10° W 16:52:54 47° NNW 17:09:44 10° NE daylight
21 Dec - 19:00:20 10° WNW 19:12:11 23° NNW 19:26:20 10° NNE visible
21 Dec - 21:23:50 10° NW 21:35:18 17° N 21:46:02 10° NE visible
